CARBONITE 1 (CBNT-1) (40718 NORAD) Tracking and Keplerian Element Data

This shows tracking and keplerian element data for the satellite.

Feedback or suggestion? Click here.




ElementValue
Catalog40718
NameCARBONITE 1 (CBNT-1)
Epoch Orbit51556
Epoch Day35.15814671
Epoch Year2025
RAAN230.261
Inclination97.6451
Eccentricity0.0015955
Argument of Perigee123.9211
Mean Anonmoly236.3521
Mean Motion14.80837462
Decay Rate4.215E-05
L11 40718U 15032D 25035.15814671 .00004215 00000+0 55134-3 0 9991
L22 40718 97.6451 230.2610 0015955 123.9211 236.3521 14.80837462515569



Live tracking and technical data element details for CARBONITE 1 (CBNT-1) (NORAD 40718). CARBONITE 1 (CBNT-1) can be tracked NOW for your location showing map with azimuth and elevation plus other details from your city location.







IsCatalogInMostPopularTable: catalog: 40718, numindb: 405
Update: records affected: 1



GetName: 40718 CARBONITE 1 (CBNT-1)

Hit Count: updated at: Thu, 22 May 2025 02:57:02 GMT